Bad Axe, MI

6:35 PM EDT on April 28, 2017 (GMT -0400)
Huron County Memorial

Weather History for KBAX - August, 2013

Change the Weather History Date:

Wednesday, August 28, 2013

  Actual Average (KP58) Record (KP58)
Temperature  
Mean Temperature 72 °F -  
Max Temperature 79 °F 72 °F 87 °F (2010)
Min Temperature 64 °F 58 °F 54 °F (2014)
Cooling Degree Days 7    
Growing Degree Days 22 (Base 50)    
Moisture  
Dew Point 69 °F    
Average Humidity 90    
Maximum Humidity 99    
Minimum Humidity 73    
Precipitation  
Precipitation 0.00 in - - ()
Sea Level Pressure  
Sea Level Pressure 29.94 in    
Wind  
Wind Speed 5 mph (NNE)    
Max Wind Speed 12 mph    
Max Gust Speed 16 mph    
Visibility 6 miles    
Events Rain    
Averages and records for this station are not official NWS values.
T = Trace of Precipitation, MM = Missing Value Source: NWS Daily Summary

Daily Weather History Graph

Daily Weather History Graph

Search for Another Location

Airport or City:

Trip Planner

Search our weather history database for the weather conditions in past years. The results will help you decide how hot, cold, wet, or windy it might be!

Date:

Astronomy

Aug. 28, 2013 Rise Set
Actual Time 6:51 AM EDT 8:14 PM EDT
Civil Twilight 6:21 AM EDT 8:43 PM EDT
Nautical Twilight 5:45 AM EDT 9:19 PM EDT
Astronomical Twilight 5:06 AM EDT 9:57 PM EDT
Moon No Moon Rise 2:56 PM EDT
Length of Visible Light 14h 22m
Length of Day
13h 22m
Waning Gibbous, 47% of the Moon is Illuminated
Aug 28
Waning Gibbous
Sep 5
New
Sep 12
First Quarter
Sep 19
Full
Sep 26
Last Quarter

Hourly Weather History & Observations

Time (EDT) Temp. Dew Point Humidity Pressure Visibility Wind Dir Wind Speed Gust Speed Precip Events Conditions
12:12 AM 71.4 °F 70.2 °F 96% 29.87 in 10.0 mi SE 4.6 mph - N/A   Overcast
12:33 AM 71.1 °F 70.0 °F 96% 29.86 in 7.0 mi ESE 4.6 mph - N/A   Overcast
1:12 AM 70.9 °F 70.0 °F 97% 29.86 in 5.0 mi Calm Calm - N/A   Overcast
1:33 AM 70.9 °F 70.0 °F 97% 29.86 in 5.0 mi Calm Calm - N/A   Overcast
1:53 AM 71.1 °F 70.2 °F 97% 29.86 in 4.0 mi East 3.5 mph - N/A   Overcast
2:12 AM 71.1 °F 70.3 °F 98% 29.85 in 4.0 mi Calm Calm - N/A   Overcast
2:52 AM 71.2 °F 70.3 °F 97% 29.84 in 5.0 mi Calm Calm - N/A   Overcast
3:13 AM 71.2 °F 70.3 °F 97% 29.84 in 5.0 mi East 4.6 mph - N/A   Overcast
3:32 AM 71.2 °F 70.3 °F 97% 29.84 in 5.0 mi East 5.8 mph - N/A   Overcast
3:52 AM 71.1 °F 70.2 °F 97% 29.84 in 5.0 mi ENE 4.6 mph - N/A   Overcast
4:13 AM 71.1 °F 70.2 °F 97% 29.84 in 4.0 mi ENE 5.8 mph - N/A   Overcast
4:32 AM 71.1 °F 70.2 °F 97% 29.85 in 3.0 mi ENE 4.6 mph - N/A   Overcast
4:52 AM 71.1 °F 70.3 °F 98% 29.85 in 2.5 mi NNE 4.6 mph - N/A   Overcast
5:13 AM 71.1 °F 70.3 °F 98% 29.86 in 2.5 mi NNE 6.9 mph - N/A   Overcast
5:32 AM 70.9 °F 70.2 °F 98% 29.86 in 1.8 mi NNE 5.8 mph - N/A   Overcast
5:53 AM 70.7 °F 70.2 °F 98% 29.86 in 1.2 mi NNE 6.9 mph - N/A   Overcast
6:13 AM 70.7 °F 70.2 °F 98% 29.87 in 1.5 mi NNE 5.8 mph - N/A   Overcast
6:32 AM 70.9 °F 70.3 °F 98% 29.87 in 3.0 mi NNE 3.5 mph - N/A   Overcast
6:53 AM 70.9 °F 70.3 °F 98% 29.88 in 4.0 mi NE 5.8 mph - N/A Rain Light Rain
7:13 AM 71.1 °F 70.7 °F 99% 29.89 in 4.0 mi NNE 5.8 mph - N/A   Overcast
7:32 AM 71.1 °F 70.7 °F 99% 29.89 in 2.0 mi NNE 6.9 mph - N/A   Overcast
7:53 AM 71.2 °F 70.7 °F 98% 29.89 in 2.0 mi NNE 6.9 mph - N/A   Light Drizzle
8:13 AM 71.1 °F 70.7 °F 99% 29.90 in 2.5 mi NE 5.8 mph - N/A   Overcast
8:32 AM 71.2 °F 70.7 °F 98% 29.90 in 3.0 mi NE 4.6 mph - N/A   Overcast
8:53 AM 72.0 °F 71.6 °F 99% 29.90 in 4.0 mi NNE 6.9 mph - N/A   Overcast
9:13 AM 72.3 °F 71.6 °F 98% 29.90 in 4.0 mi NNE 6.9 mph - N/A   Overcast
9:32 AM 72.1 °F 71.2 °F 97% 29.91 in 5.0 mi NNE 8.1 mph - N/A   Overcast
9:53 AM 72.9 °F 71.4 °F 95% 29.91 in 7.0 mi NE 8.1 mph - N/A   Mostly Cloudy
10:13 AM 74.3 °F 72.0 °F 92% 29.92 in 7.0 mi NE 10.4 mph - N/A   Mostly Cloudy
10:32 AM 74.8 °F 70.5 °F 86% 29.93 in 10.0 mi NE 9.2 mph - N/A   Mostly Cloudy
10:53 AM 75.9 °F 70.5 °F 83% 29.93 in 10.0 mi NNE 11.5 mph 16.1 mph N/A   Mostly Cloudy
11:13 AM 75.4 °F 69.4 °F 82% 29.93 in 10.0 mi NE 9.2 mph - N/A   Scattered Clouds
11:32 AM 76.1 °F 70.0 °F 81% 29.93 in 10.0 mi NNE 9.2 mph - N/A   Scattered Clouds
11:53 AM 77.0 °F 70.0 °F 79% 29.94 in 10.0 mi NE 11.5 mph 16.1 mph N/A   Scattered Clouds
12:13 PM 79.0 °F 70.5 °F 75% 29.94 in 10.0 mi NE 10.4 mph 16.1 mph N/A   Mostly Cloudy
12:32 PM 78.4 °F 69.8 °F 75% 29.95 in 10.0 mi NNE 10.4 mph 16.1 mph N/A   Overcast
12:53 PM 77.2 °F 69.6 °F 77% 29.95 in 10.0 mi North 9.2 mph - N/A   Overcast
1:12 PM 78.6 °F 69.6 °F 74% 29.96 in 10.0 mi NE 9.2 mph - N/A   Mostly Cloudy
1:33 PM 77.9 °F 69.4 °F 75% 29.96 in 10.0 mi NE 9.2 mph 16.1 mph N/A   Mostly Cloudy
1:53 PM 77.9 °F 69.3 °F 75% 29.97 in 10.0 mi NNE 11.5 mph - N/A   Mostly Cloudy
2:13 PM 77.9 °F 69.1 °F 74% 29.97 in 10.0 mi NE 9.2 mph - N/A   Mostly Cloudy
2:32 PM 78.3 °F 69.3 °F 74% 29.97 in 10.0 mi North 10.4 mph - N/A   Mostly Cloudy
2:53 PM 78.1 °F 68.9 °F 73% 29.97 in 10.0 mi NNE 9.2 mph - N/A   Mostly Cloudy
3:13 PM 77.9 °F 69.8 °F 76% 29.97 in 10.0 mi North 9.2 mph - N/A   Mostly Cloudy
3:33 PM 78.1 °F 69.8 °F 76% 29.98 in 10.0 mi NNE 9.2 mph - N/A   Scattered Clouds
3:53 PM 77.2 °F 69.4 °F 77% 29.97 in 10.0 mi NNE 10.4 mph - N/A   Scattered Clouds
4:13 PM 76.5 °F 69.4 °F 79% 29.98 in 10.0 mi NNE 6.9 mph - N/A   Mostly Cloudy
4:33 PM 76.5 °F 68.9 °F 77% 29.98 in 10.0 mi NNE 9.2 mph - N/A   Mostly Cloudy
4:53 PM 77.2 °F 69.3 °F 76% 29.98 in 10.0 mi NNE 9.2 mph - N/A   Scattered Clouds
5:13 PM 77.2 °F 68.9 °F 76% 29.97 in 10.0 mi NNE 8.1 mph - N/A   Scattered Clouds
5:33 PM 77.2 °F 68.9 °F 76% 29.98 in 10.0 mi North 9.2 mph - N/A   Scattered Clouds
5:53 PM 77.0 °F 69.3 °F 77% 29.98 in 10.0 mi North 9.2 mph - N/A   Scattered Clouds
6:13 PM 76.1 °F 69.8 °F 81% 29.99 in 10.0 mi North 10.4 mph - N/A   Scattered Clouds
6:33 PM 74.7 °F 69.1 °F 83% 29.99 in 10.0 mi North 8.1 mph - N/A   Scattered Clouds
6:53 PM 73.8 °F 69.1 °F 85% 29.99 in 10.0 mi North 6.9 mph - N/A   Scattered Clouds
7:13 PM 72.7 °F 68.9 °F 88% 30.00 in 10.0 mi North 5.8 mph - N/A   Clear
7:33 PM 71.6 °F 68.2 °F 89% 30.00 in 10.0 mi North 6.9 mph - N/A   Clear
7:53 PM 70.7 °F 68.0 °F 91% 30.01 in 7.0 mi North 4.6 mph - N/A   Clear
8:13 PM 69.8 °F 68.0 °F 94% 30.01 in 5.0 mi North 4.6 mph - N/A   Clear
8:33 PM 69.1 °F 67.6 °F 95% 30.00 in 5.0 mi North 3.5 mph - N/A   Scattered Clouds
8:53 PM 68.9 °F 67.8 °F 96% 30.01 in 4.0 mi North 3.5 mph - N/A   Mostly Cloudy
9:13 PM 68.9 °F 68.0 °F 97% 30.02 in 1.8 mi NNE 3.5 mph - N/A   Overcast
9:33 PM 68.9 °F 68.0 °F 97% 30.03 in 0.8 mi North 5.8 mph - N/A   Overcast
9:53 PM 68.9 °F 68.2 °F 98% 30.04 in 0.8 mi NNE 4.6 mph - N/A   Overcast
10:13 PM 68.4 °F 68.0 °F 99% 30.04 in 1.8 mi North 3.5 mph - N/A   Overcast
10:33 PM 68.0 °F 67.3 °F 98% 30.04 in 2.5 mi Calm Calm - N/A   Mostly Cloudy
10:53 PM 67.3 °F 66.9 °F 99% 30.05 in 1.0 mi Calm Calm - N/A   Mostly Cloudy
11:13 PM 66.0 °F 65.7 °F 99% 30.05 in 1.5 mi Calm Calm - N/A   Scattered Clouds
11:33 PM 65.8 °F 65.5 °F 99% 30.05 in 1.0 mi Calm Calm - N/A   Mostly Cloudy
11:53 PM 64.6 °F 64.2 °F 99% 30.05 in 1.0 mi Calm Calm - N/A   Overcast